Weather observations for the past three days for
San Francisco Bay Oakland International Airport
Imperial (Metric)
Date Time (pdt) Wind (mph) Vis. (mi.) Weather Sky Cond. Temperature (ºF) Relative Humidity Wind Chill (°F) Heat Index (°F) Pressure Precipitation (in)
Air Dwpt 6 hour altimeter (in) sea level (mb) 1 hr 3 hr 6 hr
Max. Min.
18 08:53 W 6 10.00 A Few Clouds FEW009 FEW030 64 57.9 81% 30.02 1016.6
18 07:53 SW 5 10.00 Partly Cloudy SCT008 63 57 81% 30.02 1016.3
18 06:53 S 3 10.00 Partly Cloudy SCT008 61 57.9 90% 30.01 1015.9
18 05:53 SW 5 10.00 Mostly Cloudy BKN009 61 57.9 90% 30 1015.8
18 04:53 Calm 10.00 Mostly Cloudy FEW005 BKN009 61 57.9 61 59 90% 29.99 1015.5
18 03:53 Calm 10.00 Mostly Cloudy FEW005 BKN008 61 57.9 90% 29.99 1015.5
18 02:53 Calm 10.00 Mostly Cloudy FEW005 BKN008 60.1 57.9 93% 30 1015.8
18 01:53 N 3 10.00 Mostly Cloudy FEW005 BKN008 61 57.9 90% 30.01 1016.0
18 00:53 W 8 10.00 Mostly Cloudy FEW003 BKN008 61 57.9 90% 30.01 1016.1
17 23:53 W 9 10.00 A Few Clouds FEW003 FEW008 61 57.9 90% 30.02 1016.4
17 22:53 W 10 10.00 A Few Clouds FEW006 FEW010 60.1 57.9 70 60.1 93% 30.02 1016.5
17 21:53 W 9 10.00 A Few Clouds FEW012 61 57.9 90% 30.02 1016.5
17 20:53 W 14 10.00 A Few Clouds FEW012 63 57.9 84% 30.01 1016.0
17 19:53 W 16 10.00 A Few Clouds FEW012 64.9 59 81% 29.99 1015.6
17 18:53 W 15 10.00 A Few Clouds FEW012 68 57.9 70% 29.99 1015.6
17 17:53 W 15 10.00 A Few Clouds FEW012 69.1 57.9 68% 30 1015.9
17 16:53 W 16 10.00 A Few Clouds FEW012 70 57.9 71.1 62.1 66% 30.01 1016.3
17 15:53 W 15 10.00 A Few Clouds FEW012 70 57.9 66% 30.03 1016.7
17 14:53 W 14 10.00 A Few Clouds FEW012 70 57.9 66% 30.04 1017.1
17 13:53 W 14 10.00 A Few Clouds FEW015 68 57 68% 30.05 1017.6
17 12:53 W 12 10.00 A Few Clouds FEW013 66.9 57 71% 30.07 1018.1
17 11:53 W 8 10.00 Mostly Cloudy BKN011 64 57 78% 30.07 1018.3
17 10:53 Vrbl 5 10.00 Mostly Cloudy BKN010 62.1 55.9 62.1 57.9 80% 30.07 1018.3
17 09:53 W 5 10.00 Overcast OVC008 61 55.9 84% 30.08 1018.4
17 08:53 W 8 10.00 Overcast OVC009 60.1 55.9 86% 30.07 1018.1
17 07:53 W 7 10.00 Overcast OVC008 59 55 87% 30.06 1017.9
17 06:53 W 7 10.00 Overcast OVC007 59 55.9 90% 30.05 1017.6
17 05:53 W 7 10.00 Overcast OVC007 59 55.9 90% 30.04 1017.0
17 04:53 S 5 10.00 Mostly Cloudy BKN009 59 55 61 59 87% 30.03 1016.9
17 03:53 W 8 10.00 Mostly Cloudy BKN009 59 55 87% 30.03 1016.8
17 02:53 W 8 10.00 Mostly Cloudy BKN011 60.1 55.9 86% 30.04 1017.0
17 01:53 W 13 10.00 Mostly Cloudy BKN015 61 55.9 84% 30.03 1016.9
17 00:53 W 13 10.00 Mostly Cloudy BKN016 61 54 78% 30.04 1017.1
16 23:53 W 12 10.00 Mostly Cloudy BKN017 61 54 78% 30.04 1017.2
16 22:53 W 15 10.00 Mostly Cloudy SCT017 BKN100 61 53.1 70 61 75% 30.03 1016.9
16 21:53 W 13 10.00 Partly Cloudy SCT014 SCT220 62.1 54 75% 30.03 1016.8
16 20:53 W 14 10.00 A Few Clouds FEW014 FEW220 63 54 73% 30.03 1016.6
16 19:53 W 14 10.00 A Few Clouds FEW012 FEW220 64 52 65% 30.02 1016.3
16 18:53 W 18 G 32 10.00 A Few Clouds FEW014 66 52 61% 30.01 1016.0
16 17:53 W 16 G 31 10.00 A Few Clouds FEW014 68 52 57% 30.01 1016.1
16 16:53 W 17 G 33 10.00 A Few Clouds FEW014 70 52 72 66.9 53% 30.01 1016.2
16 15:53 W 17 G 32 10.00 A Few Clouds FEW014 FEW220 71.1 51.1 49% 30.02 1016.5
16 14:53 W 16 10.00 A Few Clouds FEW024 FEW220 71.1 51.1 49% 30.03 1016.8
16 13:53 W 18 G 30 10.00 A Few Clouds FEW025 FEW200 71.1 51.1 49% 30.03 1017.0
16 12:53 W 13 10.00 A Few Clouds FEW025 FEW200 71.1 51.1 49% 30.04 1017.3
16 11:53 W 9 10.00 A Few Clouds FEW025 69.1 51.1 53% 30.05 1017.4
16 10:53 W 8 10.00 Partly Cloudy SCT024 68 52 68 60.1 57% 30.04 1017.3
16 09:53 W 7 10.00 Mostly Cloudy BKN022 64 53.1 68% 30.04 1017.2
16 08:53 W 7 10.00 Overcast OVC020 63 53.1 70% 30.04 1017.2
16 07:53 SW 6 10.00 Overcast OVC020 62.1 54 75% 30.04 1017.0
16 06:53 W 9 10.00 Mostly Cloudy BKN018 62.1 55 78% 30.03 1016.9
16 05:53 W 9 10.00 Mostly Cloudy BKN017 61 54 78% 30.02 1016.5
16 04:53 W 9 10.00 Mostly Cloudy BKN024 60.1 55 62.1 60.1 84% 30.01 1016.0
16 03:53 W 10 10.00 Partly Cloudy SCT015 60.1 55 84% 30 1015.9
16 02:53 W 9 10.00 Partly Cloudy SCT015 61 55 81% 30 1015.9
16 01:53 W 10 10.00 Partly Cloudy SCT015 61 55.9 84% 30 1015.8
16 00:53 W 10 10.00 Partly Cloudy SCT015 61 55.9 84% 30.01 1016.1
15 23:53 W 13 10.00 A Few Clouds FEW030 61 55.9 84% 30.01 1016.2
15 22:53 W 13 10.00 Fair CLR 62.1 55.9 70 61 80% 30.01 1016.2
15 21:53 W 12 10.00 A Few Clouds FEW010 62.1 55.9 80% 30.01 1016.2
15 20:53 W 12 10.00 A Few Clouds FEW010 63 55 76% 30 1015.9
15 19:53 NW 14 10.00 A Few Clouds FEW010 64.9 53.1 66% 30 1015.8
15 18:53 W 14 10.00 A Few Clouds FEW012 FEW220 66.9 53.1 61% 30 1015.8
15 17:53 NW 15 10.00 A Few Clouds FEW012 68 53.1 59% 30 1015.8
15 16:53 W 17 10.00 A Few Clouds FEW012 69.1 53.1 71.1 64 57% 30.01 1016.3
15 15:53 NW 15 10.00 A Few Clouds FEW012 70 53.1 55% 30.03 1016.8
15 14:53 W 15 10.00 A Few Clouds FEW012 71.1 54 55% 30.04 1017.3
15 13:53 NW 14 10.00 A Few Clouds FEW014 69.1 54 59% 30.06 1017.7
15 12:53 W 14 10.00 A Few Clouds FEW014 68 54 61% 30.08 1018.4
15 11:53 NW 15 9.00 Mostly Cloudy BKN014 66 55 68% 30.09 1018.7
15 10:53 W 12 9.00 Mostly Cloudy BKN014 64 55 64 60.1 73% 30.09 1018.9
15 09:53 W 9 9.00 Mostly Cloudy BKN014 62.1 55 78% 30.09 1019.0
Date Time (pdt) Wind (mph) Vis. (mi.) Weather Sky Cond. Air Dwpt Max. Min. Relative Humidity Wind Chill (°F) Heat Index (°F) altimeter (in) sea level (mb) 1 hr 3 hr 6 hr
6 hour
Temperature (ºF) Pressure Precipitation (in)